Location: Schommer Observatory
(40.5200°N, 74.4500°W)
Time: 16:08:25
(UTC-05:00)

ISS - Pass Details

Date: 19 November 2017
Orbit: 401 x 407 km, 51.6° (Epoch: 18 November)

Event Time Altitude Azimuth Distance (km) Brightness Sun altitude
Exits shadow 04:52:26 21° 171° (S) 948 -1.8 -22.0°
Drops below altitude 10° 04:53:51 10° 156° (SSE) 1,444 -0.7 -21.8°
Sets 04:56:00 0° 147° (SSE) 2,299 0.6 -21.3°
